Flag for U.S.A. Weather past 2 weeks in Cambridge, Massachusetts, U.S.A.

Now
66 °F

Passing clouds.


Feels Like: 66 °F
Forecast: 63 / 79 °F
Wind: 14 mph from South

Location: Logan International Airport

Current Time: Sep 20, 2014 at 8:32:01 PM

Latest Report: Sep 20, 2014 at 7:54 PM


Visibility: 10 mi

Pressure: 30.14 "Hg

Humidity: 63%

Dew point: 53 °F

Location of CambridgeLocation

Historic Weather in Cambridge — Graph

°F

Cambridge temperature yesterday

Maximum temperature yesterday: 56 °F (at 11:54 AM)
Minimum temperature yesterday: 47 °F (at 6:54 AM)
Average temperature yesterday: 52 °F

Past Weeks' High & Low Weather Summary

 TemperatureHumidityPressure
High91 °F (Sep 6, 12:54 PM)97% (Sep 11, 1:54 AM)30.43 "Hg (Sep 11, 1:54 AM)
Low47 °F (Sep 19, 6:54 AM)36% (Sep 7, 12:54 PM)29.74 "Hg (Sep 6, 5:54 PM)
Average63 °F69%30.11 "Hg
* Reported Sep 5 6:54 PM — Sep 20 6:54 PM, Cambridge, Weather by CustomWeather, © 2014

Note: Actual official high and low records may vary slightly from our data, if they occured in-between our weather recording intervals... More about our weather records

Advertising

Cambridge weather history for previous 24 hours

 ConditionsComfort  
Time TempWeatherWind HumidityBarometerVisibility
6:54 PM
Sep 20
67 °FMostly cloudy.15 mph61%30.14 "Hg10 mi
5:54 PM68 °FPartly sunny.17 mph59%30.15 "Hg10 mi
4:54 PM69 °FPartly sunny.15 mph57%30.15 "Hg10 mi
3:54 PM71 °FPartly sunny.16 mph53%30.16 "Hg10 mi
2:54 PM70 °FPartly sunny.14 mph55%30.18 "Hg10 mi
1:54 PM71 °FPartly sunny.15 mph49%30.20 "Hg10 mi
8:54 AM57 °FOvercast.12 mph67%30.34 "Hg10 mi
7:54 AM54 °FSunny.13 mph74%30.34 "Hg10 mi
6:54 AM49 °FClear.7 mph80%30.37 "Hg10 mi
5:54 AM47 °FClear.7 mph80%30.37 "Hg10 mi
4:54 AM48 °FClear.6 mph74%30.38 "Hg10 mi
3:54 AM48 °FClear.9 mph71%30.37 "Hg10 mi
2:54 AM48 °FClear.6 mph68%30.40 "Hg10 mi
1:54 AM49 °FClear.5 mph66%30.40 "Hg10 mi
12:54 AM49 °FClear.9 mph66%30.39 "Hg10 mi
11:54 PM
Sep 19
50 °FClear.8 mph63%30.41 "Hg10 mi
10:54 PM51 °FClear.10 mph56%30.42 "Hg10 mi
9:54 PM51 °FClear.9 mph54%30.42 "Hg10 mi
8:54 PM51 °FClear.9 mph52%30.43 "Hg10 mi
Weather by CustomWeather, © 2014

See weather overviewHow to use our weather pages